SL-19 R/B, 36589

Orbit data source: Space-Track

SL-19 R/B, 36589 is space debris in SSO originally from a launch on Wed, 02 Jun 2010 UTC launched from the Plesetsk Missile And Space Complex (PKMTR). Debris objects in space refer to the collection of defunct objects orbiting the Earth. Examples of debris include non-operational satellites, rocket bodies, and fragments generated from explosions, collisions, or faulty payload assembly.

Loading next visibility...
Identifier
36589, 2010-023B
Orbit
SSO
Country
Flag of CISCIS
Related business
Manufacturer
Khrunichev
Mission
Spacecraft
Bus & Motor
BRIZ, S5.92
Mass
2,370 kg wet, 2,370 kg dry
Launch date (UTC)
2010-06-02 (15 years ago)
Launch vehicle
Unknown
Launch site
Plesetsk Missile And Space Complex (PKMTR)
Object type
Payload
Rocket body
Debris
Shape & HBR
Hex Cyl + 1 Rod, 2.0 m
Radar Cross Section
10.190 m², Large (>1 m²)

Expand to show TLE details & history
Last TLE update: 17 hours ago

TLE from 17 hours ago
0 SL-19 R/B
1 36589U 10023B   25257.49592447 -.00000026  00000-0  29909-4 0  9994
2 36589 100.4649 194.2501 0224511 264.8547 210.9976 13.58525266758209
Epoch: 2025-09-14T11:54Z
TLE epoch observation values (Epoch: 2025-09-14T11:54:07.874Z)
Latitude
63.52072°
Longitude
-136.34729°
Altitude
1,195.645 km
Speed
7.191 km/s
True Right ascension
02h 23m 35s
True Declination
63° 23' 28"
Sunlit
Object was in daylight at epoch
Visualization orbit readout
Latitude
Unknown
Longitude
Unknown
Altitude
Unknown
Speed
Unknown
Apparent Right ascension
Unknown
Apparent Declination
Unknown
Sunlit
N/A
Visualization observer readout
Local Sidereal Time
21:13:06
Azimuth
Unknown
Elevation
Unknown
Doppler factor
Unknown
Orbital elements
Apogee altitude
1,204.894 km
Perigee altitude
871.876 km
Semi-major axis
7,416.522 km
Eccentricity
0.02245
Inclination
100.4649°
RAAN
194.2501°
Arg. of periapsis
264.8547°
True anomaly
209.70391°
Mean anomaly
210.9976°
Eccentric anomaly
210.34768°
Mean motion
3.39815 °/min
Orbital period
105.94 mins
BSTAR
0.000029909
Loading maneuver chart data...
Computing Atmospheric mass density...
Loading historical data...
Loading historical data...
Loading historical data...
Loading historical data...
Loading historical data...
Loading historical data...
Loading historical data...
Other satellites on launch #23 in the year 2010 (2010-06-02 UTC)

Documentation

Showing up to 5 results
|